Weather History for Telluride, CO

Change the Weather History Date:

Wednesday, August 27, 2014

  Actual Average Record
Temperature  
Mean Temperature 50 °F -  
Max Temperature 57 °F 67 °F 77 °F (2008)
Min Temperature 44 °F 46 °F 37 °F (2006)
Degree Days  
Heating Degree Days 14    
Moisture  
Dew Point 43 °F    
Average Humidity 82    
Maximum Humidity 100    
Minimum Humidity 51    
Precipitation  
Precipitation 0.05 in - - ()
Sea Level Pressure  
Sea Level Pressure 30.45 in    
Wind  
Wind Speed 3 mph (SE)    
Max Wind Speed 15 mph    
Max Gust Speed 21 mph    
Visibility 10 miles    
Events Rain , Thunderstorm    
Averages and records for this station are not official NWS values.
T = Trace of Precipitation, MM = Missing Value Source: NWS Daily Summary

Daily Weather History Graph

Daily Weather History Graph

Search for Another Location

Airport:

Trip Planner

Search our weather history database for the weather conditions in past years. The results will help you decide how hot, cold, wet, or windy it might be!

Date:

Astronomy

Aug. 27, 2014 Rise Set
Actual Time 6:37 AM MDT 7:48 PM MDT
Civil Twilight 6:10 AM MDT 8:15 PM MDT
Nautical Twilight 5:37 AM MDT 8:47 PM MDT
Astronomical Twilight 5:03 AM MDT 9:21 PM MDT
Moon 8:33 AM MDT (8/27) 8:45 PM MDT (8/27)
Length of Visible Light 14h 05m
Length of Day
13h 10m
Waxing Crescent, 4% of the Moon is Illuminated
Aug 27
Waxing Crescent
Sep 2
First Quarter
Sep 8
Full
Sep 15
Last Quarter
Sep 24
New

Hourly Weather History & Observations

Time (MDT) Temp. Windchill Dew Point Humidity Pressure Visibility Wind Dir Wind Speed Gust Speed Precip Events Conditions
12:17 AM 48.2 °F - 46.4 °F 93% 30.46 in 7.0 mi East 8.1 mph - 0.03 in Rain Light Rain
12:57 AM 46.4 °F 44.3 °F 46.4 °F 100% 30.42 in 10.0 mi ENE 4.6 mph - N/A   Mostly Cloudy
1:17 AM 46.4 °F - 46.4 °F 100% 30.43 in 10.0 mi Calm Calm - N/A   Mostly Cloudy
1:38 AM 46.4 °F - 44.6 °F 93% 30.43 in 10.0 mi Calm Calm - N/A   Mostly Cloudy
1:56 AM 48.2 °F - 44.6 °F 87% 30.43 in 10.0 mi Calm Calm - N/A   Scattered Clouds
2:16 AM 48.2 °F - 44.6 °F 87% 30.43 in 10.0 mi SE 3.5 mph - N/A   Scattered Clouds
2:36 AM 48.2 °F - 44.6 °F 87% 30.42 in 10.0 mi Calm Calm - N/A   Mostly Cloudy
2:56 AM 48.2 °F - 44.6 °F 87% 30.41 in 10.0 mi East 4.6 mph - N/A   Scattered Clouds
3:17 AM 46.4 °F 45.2 °F 44.6 °F 93% 30.42 in 10.0 mi East 3.5 mph - N/A   Scattered Clouds
3:37 AM 46.4 °F - 44.6 °F 93% 30.41 in 10.0 mi Calm Calm - N/A Thunderstorm Scattered Clouds
4:16 AM 46.4 °F - 44.6 °F 93% 30.42 in 10.0 mi Calm Calm - N/A   Scattered Clouds
4:36 AM 46.4 °F - 44.6 °F 93% 30.42 in 10.0 mi Calm Calm - N/A   Mostly Cloudy
4:56 AM 46.4 °F - 44.6 °F 93% 30.43 in 10.0 mi Calm Calm - N/A   Mostly Cloudy
5:16 AM 46.4 °F 42.9 °F 44.6 °F 93% 30.42 in 10.0 mi ESE 6.9 mph - N/A Thunderstorm Overcast
5:36 AM 46.4 °F - 44.6 °F 93% 30.43 in 10.0 mi Calm Calm - N/A   Mostly Cloudy
5:56 AM 46.4 °F - 44.6 °F 93% 30.43 in 10.0 mi Calm Calm - N/A   Scattered Clouds
6:17 AM 46.4 °F - 44.6 °F 93% 30.43 in 10.0 mi Calm Calm - N/A   Clear
6:36 AM 46.4 °F - 44.6 °F 93% 30.45 in 10.0 mi Calm Calm - N/A   Scattered Clouds
6:58 AM 44.6 °F - 44.6 °F 100% 30.45 in 10.0 mi Calm Calm - N/A   Scattered Clouds
7:36 AM 46.4 °F - 42.8 °F 87% 30.45 in 10.0 mi Calm Calm - N/A   Clear
7:56 AM 48.2 °F - 42.8 °F 82% 30.46 in 10.0 mi Calm Calm - N/A   Clear
8:16 AM 48.2 °F - 42.8 °F 82% 30.46 in 10.0 mi Calm Calm - N/A   Clear
8:36 AM 50.0 °F - 44.6 °F 82% 30.46 in 10.0 mi Calm Calm - N/A   Scattered Clouds
9:17 AM 53.6 °F - 42.8 °F 67% 30.46 in 10.0 mi Calm Calm - N/A   Overcast
9:56 AM 53.6 °F - 44.6 °F 72% 30.46 in 10.0 mi Calm Calm - N/A   Overcast
10:16 AM 55.4 °F - 42.8 °F 63% 30.47 in 10.0 mi South 3.5 mph - N/A   Overcast
10:36 AM 55.4 °F - 41.0 °F 58% 30.47 in 10.0 mi WSW 3.5 mph - N/A   Overcast
10:56 AM 55.4 °F - 39.2 °F 54% 30.47 in 10.0 mi Calm Calm - N/A   Overcast
11:16 AM 55.4 °F - 39.2 °F 54% 30.47 in 10.0 mi Calm Calm - N/A   Overcast
11:36 AM 55.4 °F - 41.0 °F 58% 30.47 in 10.0 mi SW 5.8 mph - N/A Rain Light Rain
12:16 PM 55.4 °F - 37.4 °F 51% 30.47 in 10.0 mi SW 6.9 mph - N/A   Overcast
12:37 PM 57.2 °F - 39.2 °F 51% 30.45 in 10.0 mi SSE 5.8 mph - N/A   Mostly Cloudy
12:56 PM 55.4 °F - 41.0 °F 58% 30.45 in 10.0 mi ESE 8.1 mph - N/A   Overcast
1:16 PM 55.4 °F - 39.2 °F 54% 30.45 in 10.0 mi ESE 4.6 mph - N/A Thunderstorm Mostly Cloudy
1:36 PM 51.8 °F - 41.0 °F 67% 30.46 in 7.0 mi West 5.8 mph - 0.01 in Rain , Thunderstorm Rain
1:56 PM 53.6 °F - 44.6 °F 72% 30.45 in 10.0 mi Calm Calm - N/A Thunderstorm Mostly Cloudy
2:16 PM 53.6 °F - 42.8 °F 67% 30.45 in 10.0 mi WNW 5.8 mph - N/A   Mostly Cloudy
2:58 PM 53.6 °F - 42.8 °F 67% 30.44 in 10.0 mi Calm Calm - N/A Rain , Thunderstorm Light Thunderstorms and Rain
3:16 PM 53.6 °F - 41.0 °F 62% 30.43 in 10.0 mi Calm Calm - N/A Rain Light Rain
4:16 PM 48.2 °F - 39.2 °F 71% 30.45 in 10.0 mi West 3.5 mph - N/A Rain , Thunderstorm Light Thunderstorms and Rain
4:39 PM 48.2 °F - 41.0 °F 76% 30.45 in 10.0 mi SE 5.8 mph - 0.01 in Rain , Thunderstorm Light Thunderstorms and Rain
5:16 PM 48.2 °F - 44.6 °F 87% 30.47 in 10.0 mi West 5.8 mph - N/A Rain , Thunderstorm Thunderstorms and Rain
5:37 PM 48.2 °F - 42.8 °F 82% 30.48 in 10.0 mi West 9.2 mph 17.3 mph N/A Thunderstorm Overcast
5:56 PM 46.4 °F 40.1 °F 42.8 °F 87% 30.49 in 7.0 mi West 15.0 mph 20.7 mph N/A Rain Rain
6:16 PM 44.6 °F 43.1 °F 42.8 °F 93% 30.49 in 5.0 mi West 3.5 mph - 0.03 in Rain Rain
6:57 PM 46.4 °F 42.4 °F 42.8 °F 87% 30.48 in 10.0 mi East 8.1 mph - N/A Thunderstorm Overcast
7:16 PM 44.6 °F 43.1 °F 42.8 °F 93% 30.48 in 10.0 mi East 3.5 mph - N/A   Overcast
7:56 PM 44.6 °F 43.1 °F 42.8 °F 93% 30.47 in 10.0 mi East 3.5 mph - N/A   Overcast
8:16 PM 44.6 °F - 41.0 °F 87% 30.46 in 10.0 mi Calm Calm - N/A   Overcast
8:38 PM 46.4 °F - 41.0 °F 81% 30.47 in 10.0 mi Calm Calm - N/A   Overcast
8:56 PM 46.4 °F 44.3 °F 42.8 °F 87% 30.47 in 10.0 mi East 4.6 mph - N/A   Overcast
9:56 PM 44.6 °F - 42.8 °F 93% 30.47 in 10.0 mi Calm Calm - N/A   Clear
10:16 PM 44.6 °F - 42.8 °F 93% 30.47 in 10.0 mi Calm Calm - N/A   Scattered Clouds
10:38 PM 44.6 °F - 42.8 °F 93% 30.46 in 10.0 mi Calm Calm - N/A   Overcast
10:56 PM 44.6 °F 43.1 °F 42.8 °F 93% 30.46 in 10.0 mi ESE 3.5 mph - N/A   Mostly Cloudy
11:16 PM 44.6 °F 42.2 °F 42.8 °F 93% 30.45 in 10.0 mi SE 4.6 mph - N/A   Mostly Cloudy
11:36 PM 44.6 °F 43.1 °F 42.8 °F 93% 30.45 in 10.0 mi SE 3.5 mph - N/A   Overcast
11:56 PM 44.6 °F - 42.8 °F 93% 30.45 in 10.0 mi Calm Calm - N/A   Mostly Cloudy